This is the latest recevied weather packets stored in our database for station/object TG8ARF-18. If no packets are shown the sender has not sent any weather packets the latest 10 day(s).
| Time | Temp. | Humidity | Pressure | Rain* | Wind** | Luminosity | Snow |
|---|---|---|---|---|---|---|---|
| 1777459841 | 11.11° C | 79% | 1017 hPa | 0 mm | - | - | - |
| 1777459240 | 10° C | 79% | 1017 hPa | 0 mm | - | - | - |
| 1777458639 | 10° C | 79% | 1017 hPa | 0 mm | - | - | - |
| 1777458039 | 12.22° C | 82% | 1017 hPa | 0 mm | - | - | - |
| 1777457438 | 12.22° C | 82% | 1017 hPa | 0 mm | - | - | - |
| 1777456838 | 11.11° C | 82% | 1017 hPa | 0 mm | - | - | - |
| 1777456237 | 10° C | 82% | 1017 hPa | 0 mm | - | - | - |
| 1777455637 | 12.78° C | 86% | 1017 hPa | 0 mm | - | - | - |
| 1777455036 | 11.67° C | 86% | 1017 hPa | 0 mm | - | - | - |
| 1777454435 | 11.67° C | 86% | 1017 hPa | 0 mm | - | - | - |
| 1777453835 | 12.78° C | 82% | 1017 hPa | 0 mm | - | - | - |
| 1777453234 | 11.67° C | 82% | 1017 hPa | 0 mm | - | - | - |
| 1777452633 | 11.67° C | 82% | 1017 hPa | 0 mm | - | - | - |
| 1777452033 | 12.78° C | 86% | 1017 hPa | 0 mm | - | - | - |
| 1777451432 | 11.67° C | 86% | 1017 hPa | 0 mm | - | - | - |
| 1777450832 | 11.67° C | 86% | 1017 hPa | 0 mm | - | - | - |
| 1777450231 | 13.89° C | 82% | 1017 hPa | 0 mm | - | - | - |
| 1777449630 | 13.89° C | 82% | 1017 hPa | 0 mm | - | - | - |
| 1777449030 | 12.78° C | 82% | 1017 hPa | 0 mm | - | - | - |
| 1777448429 | 11.67° C | 82% | 1017 hPa | 0 mm | - | - | - |
| 1777447829 | 13.33° C | 87% | 1017 hPa | 0 mm | - | - | - |
| 1777447228 | 12.22° C | 87% | 1017 hPa | 0 mm | - | - | - |
| 1777446627 | 12.22° C | 87% | 1017 hPa | 0 mm | - | - | - |
| 1777446027 | 14.44° C | 82% | 1017 hPa | 0 mm | - | - | - |
| 1777445426 | 13.33° C | 82% | 1017 hPa | 0 mm | - | - | - |
* Rain latest hour (hover to see other rain measurements)
** Current wind speed in m/s (hover to see current wind gust speed)